Lapse_Rate
5.2 3.8 3.5 3.6 4.1 4.4 3.8 1.4 1.8 2.2 2.3 1.4 0.9 0.8 1.2 1.1 1.8 2.6 1.3 1.5 1.1 1.7 1.6 0.1 -0.2 1.1 0.1 0.0 0.2 0.5 1.0 1.1
6.2 4.8 3.7 3.6 4.2 3.8 3.6 1.6 0.5 2.1 2.0 1.7 1.3 0.8 1.0 0.7 1.1 1.4 0.9 1.3 1.3 1.6 2.0 0.4 0.4 0.7 1.0 0.2 0.2 -0.1 -0.1 0.7
7.1 4.9 4.4 3.2 3.1 3.3 4.2 2.6 1.8 1.5 3.0 3.0 2.6 1.9 0.9 1.0 1.0 0.9 1.0 1.1 1.3 1.9 1.8 0.9 0.4 0.3 -0.7 -0.2 0.0 -0.5 -0.3 0.1
7.6 5.3 3.6 3.8 3.6 3.9 3.8 2.1 3.4 4.3 4.0 3.1 2.4 1.3 0.4 0.7 1.7 1.4 1.0 1.3 1.3 1.8 1.1 0.7 -0.3 0.9 -0.1 0.3 0.7 1.3 0.1 -0.6
7.4 6.6 5.7 4.0 3.9 4.2 5.9 5.1 4.1 4.6 3.6 3.3 1.3 1.3 1.4 3.1 2.7 2.6 1.0 1.0 1.0 1.3 1.2 0.7 1.0 0.4 0.9 0.1 0.2 1.2 1.2 0.7
6.8 5.9 5.6 5.8 4.8 4.5 5.1 7.3 5.5 4.3 3.6 4.0 1.8 2.8 2.8 3.1 2.2 1.6 1.1 0.7 0.8 0.7 0.3 -0.0 -0.7 -0.2 -0.1 0.2 -0.2 0.4 1.4 1.1
6.3 5.8 4.8 5.8 5.7 5.2 4.9 6.2 5.5 4.4 4.1 4.2 2.6 2.7 1.8 0.5 0.8 1.4 1.6 0.6 0.7 0.9 0.7 0.3 0.4 0.4 -0.1 -0.3 -0.3 -0.2 0.4 0.6
7.8 7.4 5.3 4.2 5.7 6.4 5.8 4.9 5.4 4.7 4.1 4.2 2.8 3.0 1.6 0.3 0.1 1.4 2.0 0.5 0.6 0.0 0.7 0.3 1.1 0.7 -0.1 -0.3 -0.5 -0.7 -0.5 0.4
7.8 7.5 6.2 5.5 4.7 5.1 6.7 6.3 4.9 4.7 4.5 4.5 3.5 3.8 2.1 1.7 0.9 0.6 2.3 1.4 0.9 0.6 0.6 0.8 0.5 0.1 -0.3 -0.6 -0.3 -0.7 -0.8 -0.2
8.0 8.0 6.2 5.3 5.0 5.6 6.7 7.5 6.2 5.9 4.9 4.8 4.3 3.6 2.9 2.2 1.7 0.7 1.7 0.7 -0.2 1.1 2.3 1.3 0.8 0.8 -0.3 -0.4 -1.1 -0.9 -1.0 -1.2
8.5 8.1 6.5 5.3 5.1 7.2 7.6 7.4 6.7 5.6 4.4 4.1 4.5 3.3 3.2 2.4 1.6 1.5 0.8 -0.1 1.6 2.4 1.8 1.7 1.2 0.5 0.3 -0.5 -1.1 -1.7 -1.0 -1.8
7.2 8.0 6.5 5.4 5.6 5.9 5.7 5.2 4.8 3.4 3.8 4.2 3.6 2.9 1.9 1.3 1.4 2.2 2.1 2.0 2.5 2.8 3.1 2.2 2.0 0.6 0.3 -0.5 -1.0 -1.7 -1.2 -0.8
6.7 7.6 4.7 4.5 4.8 5.3 4.9 3.4 3.1 3.2 3.1 2.8 3.0 1.6 1.5 1.6 1.4 2.1 2.3 3.1 3.3 4.0 3.8 3.4 2.5 1.5 0.7 -0.4 -1.7 -1.2 -0.2 -1.7
7.2 7.4 7.1 3.9 3.4 3.0 4.3 4.1 3.6 3.5 3.1 2.9 2.1 2.0 2.1 1.9 1.9 2.1 2.1 2.5 3.6 4.2 3.8 3.2 2.1 0.8 0.6 0.7 -0.9 -0.3 -0.2 -1.3
7.3 7.0 7.0 5.8 3.0 2.8 2.0 4.3 3.3 3.3 3.6 3.1 2.5 2.6 2.8 3.3 1.8 0.9 0.9 1.3 1.3 3.4 3.8 1.7 1.4 1.3 0.2 0.6 -0.5 -0.3 -0.5 -0.2
7.6 7.3 7.4 7.2 3.8 2.4 2.0 2.2 2.7 2.2 2.7 3.0 3.0 3.6 3.0 1.6 1.0 1.7 2.2 1.7 2.9 4.2 2.2 1.7 1.9 1.2 0.5 -0.8 -0.6 0.1 0.1 -0.1
7.6 7.9 7.1 6.8 5.6 3.7 2.0 1.9 2.3 2.1 2.0 1.5 2.3 2.0 1.0 1.0 0.7 1.2 2.0 2.2 2.5 3.4 2.5 0.8 1.6 2.3 0.8 -0.6 0.4 0.4 0.7 0.9
8.1 7.8 6.7 5.9 5.3 3.4 2.6 2.0 1.7 1.5 1.9 1.7 1.4 1.6 1.7 0.9 1.2 1.3 1.9 2.1 2.8 1.8 0.8 0.5 1.0 1.1 0.6 0.3 0.1 0.3 0.4 1.0
7.8 8.2 6.5 5.5 5.7 3.5 3.8 1.5 2.1 1.9 1.8 2.0 1.4 1.3 1.6 0.8 0.4 1.1 1.1 1.7 1.9 1.5 0.6 -0.0 0.9 0.8 1.2 0.3 -0.8 -1.3 1.0 1.2
Wind_Speed
18 20 21 21 21 20 21 17 18 17 12 11 8 9 9 14 12 16 20 18 18 15 13 14 14 5 7 8 10 8 10 10
17 17 18 18 18 21 21 20 20 15 12 13 11 12 10 9 7 16 18 19 20 16 11 12 12 10 8 10 11 13 9 11
16 16 16 19 20 21 20 22 21 19 13 13 8 11 8 9 8 12 17 19 21 17 12 11 11 8 12 11 12 8 5 7
18 13 15 17 20 21 23 23 20 20 17 11 7 9 7 7 9 9 10 17 18 19 16 10 9 8 8 10 9 7 7 5
16 14 14 15 19 20 21 17 19 18 19 16 19 16 14 10 10 9 10 16 16 19 18 14 10 9 10 8 7 5 7 8
16 16 15 15 16 17 18 18 16 18 20 20 15 17 12 11 11 15 13 10 14 15 16 13 9 6 9 8 9 8 4 7
19 15 14 15 13 15 17 19 18 19 20 21 21 20 18 14 15 13 11 10 8 9 13 10 12 11 10 9 8 9 6 7
19 19 17 15 14 16 17 20 19 20 22 22 22 21 21 22 20 15 16 11 10 11 11 8 8 11 12 11 10 10 8 7
18 20 17 16 18 17 20 22 21 21 21 22 19 19 12 13 16 14 13 11 11 12 11 9 9 12 12 11 9 8 9 8
23 19 18 18 19 19 19 22 20 20 20 16 16 14 14 13 15 14 11 12 11 12 11 9 7 10 11 11 9 10 9 7
23 21 19 15 16 16 13 16 16 14 15 13 14 14 13 11 12 15 15 16 15 14 11 10 12 9 9 9 10 10 10 6
20 20 19 15 16 12 6 7 10 12 14 14 13 14 15 15 14 14 14 15 16 13 13 12 10 10 10 10 10 9 10 9
19 17 13 11 11 10 6 3 9 12 15 14 14 14 16 16 16 16 16 13 13 16 15 13 11 11 10 11 13 9 10 11
20 18 16 9 6 6 5 1 4 8 11 12 13 15 15 16 17 17 16 16 12 11 14 13 12 12 12 10 13 11 9 10
18 15 14 13 6 5 3 2 6 9 10 12 13 15 16 15 16 18 19 19 17 15 14 13 12 12 11 12 12 12 11 8
14 12 13 16 8 7 4 4 5 7 9 11 12 11 11 14 15 14 16 16 16 14 15 13 12 11 9 13 12 12 12 10
18 17 18 18 13 10 8 8 8 7 7 7 9 12 13 14 15 15 14 15 15 13 14 15 12 9 19 19 14 12 12 11
20 16 16 18 15 10 12 11 8 10 8 10 11 10 13 14 15 16 16 15 15 13 12 14 13 12 21 22 21 11 10 9
21 18 17 18 12 10 10 11 11 11 11 10 13 13 13 11 13 14 14 12 14 13 13 13 12 10 21 22 21 13 9 9
Wind_Direction
251 242 232 228 219 207 199 189 190 186 175 166 164 171 174 175 179 182 174 175 175 174 171 161 156 162 150 143 137 133 131 129
257 249 235 228 219 209 201 191 189 183 180 176 176 183 174 177 174 174 171 173 176 174 171 163 167 159 157 145 138 135 123 136
267 247 234 217 214 209 205 202 189 188 193 191 182 173 181 170 168 173 174 173 173 174 173 171 164 163 149 157 157 148 127 168
286 261 234 220 219 211 209 203 194 191 190 178 156 152 138 158 182 174 174 171 173 173 172 165 162 162 166 162 165 170 152 178
316 301 273 228 225 222 219 199 194 190 181 184 176 175 175 191 179 168 166 170 170 172 170 165 174 157 175 168 167 168 158 161
324 318 305 275 244 227 216 210 197 189 184 190 183 185 184 167 166 163 166 168 168 167 164 158 148 160 153 162 163 166 168 151
332 336 324 312 266 232 216 207 199 192 192 190 187 187 173 163 166 169 172 164 159 162 159 156 160 149 151 148 150 149 157 145
330 336 337 325 307 246 224 205 203 196 193 195 189 189 178 171 169 173 170 167 165 164 153 150 158 153 146 145 139 135 137 143
335 339 330 326 308 283 229 214 209 195 197 196 188 186 180 177 177 172 173 169 158 151 141 137 147 158 141 140 134 121 125 126
324 334 333 330 317 298 238 220 208 198 192 189 186 172 173 173 169 163 159 142 135 126 126 132 144 162 145 148 127 127 127 127
320 321 332 326 317 317 257 225 208 189 176 174 178 164 162 152 149 152 150 137 132 135 135 145 151 157 153 137 129 134 133 121
312 316 316 321 315 321 263 207 176 159 165 170 160 156 149 147 144 143 140 129 135 140 145 142 153 156 159 138 135 134 125 138
310 299 281 301 307 319 318 338 159 161 163 161 156 143 143 141 142 138 134 137 144 159 156 148 159 160 163 163 133 155 150 120
291 296 293 285 301 322 328 208 125 153 151 147 143 144 143 143 143 145 145 138 144 160 146 155 161 160 165 162 143 141 131 123
290 299 300 291 245 231 219 199 144 149 154 152 148 152 154 164 155 152 149 145 146 158 168 152 155 160 157 158 142 139 118 137
314 311 311 303 262 219 199 151 151 147 151 153 157 153 149 144 143 145 146 145 157 170 151 139 149 152 156 158 139 130 133 136
321 317 311 313 280 220 186 171 156 143 138 128 135 134 135 139 136 138 144 144 145 161 154 140 151 163 157 136 146 138 138 144
321 316 307 308 298 200 193 177 156 141 147 141 134 139 142 148 147 144 150 150 151 154 150 141 154 150 154 150 142 134 141 154
313 311 311 310 299 199 182 164 171 158 154 156 146 148 147 146 144 148 146 146 150 150 144 140 139 150 153 153 138 127 147 158